Alliance, NE

3:38 PM MDT on July 28, 2016 (GMT -0600)
Alliance Municipal

Weather History for KAIA - December, 2012

Change the Weather History Date:

Tuesday, December 11, 2012

  Actual Average Record
Temperature  
Mean Temperature 24 °F 24 °F  
Max Temperature 41 °F 39 °F 67 °F (1990)
Min Temperature 6 °F 9 °F -24 °F (2000)
Degree Days  
Heating Degree Days 41 41  
Month to date heating degree days 366 442  
Since 1 July heating degree days 1929 2241  
Cooling Degree Days 0 0  
Month to date cooling degree days 0 0  
Year to date cooling degree days 959 564  
Moisture  
Dew Point 10 °F    
Average Humidity 61    
Maximum Humidity 92    
Minimum Humidity 30    
Precipitation  
Precipitation 0.00 in 0.01 in 0.24 in (1938)
Month to date precipitation T 0.18  
Year to date precipitation 6.77 15.52  
Sea Level Pressure  
Sea Level Pressure 29.92 in    
Wind  
Wind Speed 11 mph (WSW)    
Max Wind Speed 20 mph    
Max Gust Speed 23 mph    
Visibility 10 miles    
Events      
T = Trace of Precipitation, MM = Missing Value Source: NWS Daily Summary

Daily Weather History Graph

Daily Weather History Graph

Search for Another Location

Airport or City:

Trip Planner

Search our weather history database for the weather conditions in past years. The results will help you decide how hot, cold, wet, or windy it might be!

Date:

Astronomy

Dec. 11, 2012 Rise Set
Actual Time 7:09 AM MST 4:19 PM MST
Civil Twilight 6:38 AM MST 4:51 PM MST
Nautical Twilight 6:02 AM MST 5:26 PM MST
Astronomical Twilight 5:28 AM MST 6:00 PM MST
Moon 5:06 AM MST (12/11) 3:01 PM MST (12/11)
Length of Visible Light 10h 13m
Length of Day
9h 09m
Waning Crescent, 4% of the Moon is Illuminated
Dec 11
Waning Crescent
Dec 13
New
Dec 19
First Quarter
Dec 28
Full
Jan 4
Last Quarter

Hourly Weather History & Observations

Time (MST) Temp. Windchill Dew Point Humidity Pressure Visibility Wind Dir Wind Speed Gust Speed Precip Events Conditions
12:53 AM 10.0 °F -1.9 °F 6.1 °F 84% 30.03 in 10.0 mi West 8.1 mph - N/A   Clear
1:53 AM 12.9 °F 1.6 °F 10.0 °F 88% 30.03 in 10.0 mi West 8.1 mph - N/A   Scattered Clouds
2:53 AM 17.1 °F 6.6 °F 12.9 °F 84% 30.00 in 10.0 mi West 8.1 mph - N/A   Overcast
3:53 AM 10.9 °F -0.8 °F 8.1 °F 88% 30.02 in 10.0 mi West 8.1 mph - N/A   Scattered Clouds
4:53 AM 12.2 °F -0.2 °F 8.6 °F 85% 29.89 in 10.0 mi WSW 9.2 mph - N/A   Clear
5:53 AM 8.1 °F -5.3 °F 3.9 °F 83% 30.04 in 10.0 mi West 9.2 mph - N/A   Clear
6:53 AM 10.9 °F -0.8 °F 6.1 °F 81% 30.04 in 10.0 mi West 8.1 mph - N/A   Clear
7:53 AM 10.0 °F -0.9 °F 6.1 °F 84% 30.05 in 10.0 mi West 6.9 mph - N/A   Clear
8:53 AM 19.9 °F 12.1 °F 12.9 °F 74% 30.02 in 10.0 mi West 5.8 mph - N/A   Clear
9:53 AM 32.0 °F 22.5 °F 17.1 °F 54% 29.99 in 10.0 mi West 12.7 mph - N/A   Clear
10:53 AM 36.0 °F 26.3 °F 12.9 °F 39% 29.96 in 10.0 mi WSW 16.1 mph - N/A   Clear
11:53 AM 37.9 °F 28.5 °F 12.0 °F 35% 29.91 in 10.0 mi WSW 17.3 mph - N/A   Clear
12:53 PM 39.0 °F 30.6 °F 10.9 °F 32% 29.89 in 10.0 mi SW 15.0 mph - N/A   Clear
1:53 PM 39.9 °F 33.4 °F 10.9 °F 31% 29.86 in 10.0 mi WSW 10.4 mph - N/A   Clear
2:53 PM 41.0 °F 34.7 °F 12.0 °F 31% 29.83 in 10.0 mi SW 10.4 mph - N/A   Clear
3:53 PM 36.0 °F 30.3 °F 10.0 °F 34% 29.85 in 10.0 mi SW 6.9 mph - N/A   Clear
4:53 PM 21.0 °F 10.6 °F 6.1 °F 53% 29.88 in 10.0 mi South 9.2 mph - N/A   Clear
5:53 PM 26.1 °F 16.2 °F 10.9 °F 53% 29.88 in 10.0 mi South 10.4 mph - N/A   Clear
6:53 PM 28.0 °F 17.5 °F 14.0 °F 56% 29.85 in 10.0 mi SSW 12.7 mph - N/A   Clear
7:53 PM 28.0 °F 18.6 °F 9.0 °F 45% 29.85 in 10.0 mi SSW 10.4 mph - N/A   Partly Cloudy
8:53 PM 30.0 °F 20.0 °F 10.0 °F 43% 29.81 in 10.0 mi SSW 12.7 mph - N/A   Clear
9:53 PM 28.0 °F 17.5 °F 9.0 °F 45% 29.78 in 10.0 mi SSW 12.7 mph - N/A   Clear
10:53 PM 28.0 °F 18.1 °F 10.0 °F 47% 29.78 in 10.0 mi SW 11.5 mph - N/A   Clear
11:53 PM 27.0 °F 16.1 °F 10.9 °F 51% 29.76 in 10.0 mi SSW 12.7 mph - N/A   Clear